Satellite: ASTRA 1B
Catalog number: 21139
Epoch time:      103049.00000000
Element set:     161 
Inclination:        0.0122 deg
RA of node:       319.8851 deg
Eccentricity:    0.0002995
Arg of perigee:    65.1991 deg
Mean anomaly:     141.6493 deg
Mean motion:    1.00273184 rev/day
Decay rate:    1.1600Epoch rev:            3218
Checksum:              228

Satellite: METEOSAT 5 (MO
Catalog number: 21140
Epoch time:      103056.76091723
Element set:     734 
Inclination:        5.6450 deg
RA of node:        69.8887 deg
Eccentricity:    0.0001688
Arg of perigee:   149.9948 deg
Mean anomaly:     272.1376 deg
Mean motion:    1.00275798 rev/day
Decay rate:    3.9999E-008 rev/day^2
Epoch rev:            4612
Checksum:              347

Satellite: NOAA 12
Catalog number: 21263
Epoch time:      103056.92603809
Element set:     982 
Inclination:       98.6272 deg
RA of node:        46.4292 deg
Eccentricity:    0.0013235
Arg of perigee:     4.7740 deg
Mean anomaly:     355.3563 deg
Mean motion:   14.25086284 rev/day
Decay rate:    2.4399E-006 rev/day^2
Epoch rev:           61226
Checksum:              312

Satellite: OSCAR 22 (UoSA
Catalog number: 21575
Epoch time:      103056.52990159
Element set:     734 
Inclination:       98.1415 deg
RA of node:        48.3006 deg
Eccentricity:    0.0008363
Arg of perigee:   108.6928 deg
Mean anomaly:     251.5170 deg
Mean motion:   14.39159592 rev/day
Decay rate:    2.6699E-006 rev/day^2
Epoch rev:           60928
Checksum:              448

Satellite: METEOR 3-5
Catalog number: 21655
Epoch time:  Element set:     502 
Inclination:       82.5555 deg
RA of node:        33.4705 deg
Eccentricity:    0.0012801
Arg of perigee:   175.2920 deg
Mean anomaly:     184.8335 deg
Mean motion:   13.16980423 rev/day
Decay rate:    5.1000E-007 rev/day^2
Epoch rev:           55448
Checksum:              296

Satellite: UARS
Catalog number: 21701
Epoch time:      103056.81321986
Element set:     833 
Inclination:       56.9829 deg
RA of node:         2.7273 deg
Eccentricity:    0.0004308
Arg of perigee:   111.5656 deg
Mean anomaly:     248.5854 deg
Mean motion:   15.02871795 rev/day
Decay rate:    4.4399E-006 rev/day^2
Epoch rev:           62680
Checksum:              324

Satellite: EUTELSAT 2-F3
Catalog number: 21803
Epoch time:      103051.82541764
Element set:     524 
Inclination:        2.6025 deg
RA of node:        89.0644 deg
Eccentricity:    0.0003498
Arg of perigee:   285.9590 deg
Mean anomaly:      94.1679 deg
Mean motion:    1.00280742 rev/day
Decay rate:    1.2399E-006 rev/day^2
Epoch rev:            3702
Checksum:              296

Satellite: INMARSAT 2-F3
Catalog number: 21814
Epoch time:      103056.39025362
Element set:     622 
Inclination:        1.7573 deg
RA of node:        58.4504 deg
Eccentricity:    0.0002876
Arg of perigee:   283.3625 deg
Mean anomaly: Mean motion:    1.00272377 rev/day
Decay rate:    9.6999E-007 rev/day^2
Epoch rev:            4096
Checksum:              315

Satellite: INMARSAT 2-F4
Catalog number: 21940
Epoch time:      103055.64438402
Element set:     573 
Inclination:        2.3921 deg
RA of node:        19.1809 deg
Eccentricity:    0.0002668
Arg of perigee:   212.0827 deg
Mean anomaly:     263.7763 deg
Mean motion:    1.00264880 rev/day
Decay rate:   -3.6399E-006 rev/day^2
Epoch rev:            3974
Checksum:              303

Satellite: EUTELSAT 2-F4
Catalog number: 22028
Epoch time:      103052.59043583
Element set:     333 
Inclination:        1.RA of node:        92.4650 deg
Eccentricity:    0.0006109
Arg of perigee:   235.3032 deg
Mean anomaly:      23.5664 deg
Mean motion:    1.00271843 rev/day
Decay rate:   -1.0600E-006 rev/day^2
Epoch rev:            3180
Checksum:              345

Satellite: OSCAR 23 (KITS
Catalog number: 22077
Epoch time:      103056.87553343
Element set:     157 
Inclination:       66.0868 deg
RA of node:       110.4279 deg
Eccentricity:    0.0015661
Arg of perigee:   271.8114 deg
Mean anomaly:      88.1111 deg
Mean motion:   12.86408728 rev/day
Decay rate:   -3.7000E-007 rev/day^2
Epoch rev:           49524
Checksum:              306

Satellite: ASCatalog number: 22653
Epoch time:      103049.00000000
Element set:     788 
Inclination:        0.0122 deg
RA of node:       319.8851 deg
Eccentricity:    0.0002995
Arg of perigee:    65.1991 deg
Mean anomaly:     141.6099 deg
Mean motion:    1.00273184 rev/day
Decay rate:    1.1600E-006 rev/day^2
Epoch rev:            3088
Checksum:              252

Satellite: METEOR 2-21
Catalog number: 22782
Epoch time:      103056.69419503
Element set:     527 
Inclination:       82.5486 deg
RA of node:       209.2414 deg
Eccentricity:    0.0021618
Arg of perigee:   328.8518 deg
Mean anomaly:      31.1347 deg
Mean motion:   13.83532599 rev/day
Decay rate:    7.0Epoch rev:           47907
Checksum:              344

Satellite: KITSAT B
Catalog number: 22825
Epoch time:      103057.24489539
Element set:     495 
Inclination:       98.2743 deg
RA of node:        86.5503 deg
Eccentricity:    0.0007541
Arg of perigee:   234.2193 deg
Mean anomaly:     125.8289 deg
Mean motion:   14.28945574 rev/day
Decay rate:    7.6999E-007 rev/day^2
Epoch rev:           49097
Checksum:              367

Satellite: POSAT 1
Catalog number: 22826
Epoch time:      103056.64387442
Element set:     317 
Inclination:       98.2752 deg
RA of node:        87.1001 deg
Eccentricity:    0.0007982
Arg of perigee:   239.0571 deg
Mean anomaly:     120.9832 deg
Mean motion:   14.29169104 rev/day
Decay rate:    1.3799E-006 rev/day^2
Epoch rev:           49093
Checksum:              319

Satellite: ITAMSAT
Catalog number: 22828
Epoch time:      103057.11247183
Element set:     434 
Inclination:       98.2711 deg
RA of node:        87.8080 deg
Eccentricity:    0.0009163
Arg of perigee:   212.2062 deg
Mean anomaly:     147.8557 deg
Mean motion:   14.29510455 rev/day
Decay rate:    7.5999E-007 rev/day^2
Epoch rev:           45920
Checksum:              317

Satellite: EYESAT A
Catalog number: 22829
Epoch time:      10305Element set:     460 
Inclination:       98.2717 deg
RA of node:        88.8233 deg
Eccentricity:    0.0009059
Arg of perigee:   210.6948 deg
Mean anomaly:     149.3708 deg
Mean motion:   14.29772139 rev/day
Decay rate:    1.4199E-006 rev/day^2
Epoch rev:           49119
Checksum:              343

Satellite: METEOSAT 6
Catalog number: 22912
Epoch time:      103055.96029865
Element set:     695 
Inclination:        2.6994 deg
RA of node:        83.1768 deg
Eccentricity:    0.0062823
Arg of perigee:   129.9325 deg
Mean anomaly:     297.0259 deg
Mean motion:    1.00269714 rev/day
Decay rate:    5.2000E-007 rev/day^2
Epoch rev:            3236
Checksum:              315

Satellite: GOES 8
Catalog number: 23051
Epoch time:      103057.18926566
Element set:     624 
Inclination:        0.3160 deg
RA of node:       102.7303 deg
Eccentricity:    0.0000742
Arg of perigee:   275.7691 deg
Mean anomaly:     130.6108 deg
Mean motion:    1.00275039 rev/day
Decay rate:   -2.6699E-006 rev/day^2
Epoch rev:            3988
Checksum:              288

Satellite: ASTRA 1D
Catalog number: 23331
Epoch time:      103052.80144086
Element set:     819 
Inclination:        0.0537 deg
RA of node:       223.1440 deg
Eccentricity:    0.0013728
Arg of perigee:   173.9673 deg
Mean anomaly:      6Mean motion:    1.00275913 rev/day
Decay rate:    1.3200E-006 rev/day^2
Epoch rev:            3090
Checksum:              258

Satellite: RADIO ROSTO
Catalog number: 23439
Epoch time:      103055.41335031
Element set:     689 
Inclination:       64.8161 deg
RA of node:        32.0287 deg
Eccentricity:    0.0146717
Arg of perigee:   114.0454 deg
Mean anomaly:     247.5899 deg
Mean motion:   11.27547632 rev/day
Decay rate:   -4.1000E-007 rev/day^2
Epoch rev:           33625
Checksum:              291

Satellite: NOAA 14
Catalog number: 23455
Epoch time:      103056.90769279
Element set:     536 
Inclination:       99.1868 deRA of node:        75.6691 deg
Eccentricity:    0.0008788
Arg of perigee:   206.0042 deg
Mean anomaly:     154.0689 deg
Mean motion:   14.13299552 rev/day
Decay rate:    6.0999E-007 rev/day^2
Epoch rev:           42051
Checksum:              357

Satellite: HIMAWARI 5 (GM
Catalog number: 23522
Epoch time:      103055.46641786
Element set:     120 
Inclination:        1.7782 deg
RA of node:        83.3819 deg
Eccentricity:    0.0000739
Arg of perigee:   121.4819 deg
Mean anomaly:     257.1832 deg
Mean motion:    1.00275763 rev/day
Decay rate:   -2.9200E-006 rev/day^2
Epoch rev:            2895
Checksum:              298

Satellite: HOTCatalog number: 23537
Epoch time:      103054.87288413
Element set:     537 
Inclination:        0.1701 deg
RA of node:       291.4887 deg
Eccentricity:    0.0007489
Arg of perigee:   355.1418 deg
Mean anomaly:     193.9338 deg
Mean motion:    1.00269723 rev/day
Decay rate:    7.5999E-007 rev/day^2
Epoch rev:            2902
Checksum:              326

Satellite: GOES 9
Catalog number: 23581
Epoch time:      103055.54810688
Element set:     531 
Inclination:        0.2580 deg
RA of node:       277.4942 deg
Eccentricity:    0.0011939
Arg of perigee:   247.8299 deg
Mean anomaly:      24.7504 deg
Mean motion:    1.00059588 rev/day
Decay rate:    1.0400EEpoch rev:            2842
Checksum:              297

